STARLINK-3329, 50827

Orbit data source: Space-Track

STARLINK-3329, 50827 is a payload satellite owned by SpaceX/Seattle (US) in LEO that was launched on Thu, 06 Jan 2022 UTC via an FALCON 9 launch vehicle from the Air Force Eastern Test Range (AFETR). Payload-class satellites include a variety of spacecraft equipped with specific instruments for various scientific and technological missions. These include communications satellites like Starlink; space stations such as the ISS; scientific satellites like the Hubble; Earth observation satellites from companies like Planet Labs, Umbra, and HawkEye 360; GPS; miniature CubeSats for education and research; and military/defense satellites.

Loading next visibility...
Identifier
50827, 2022-001AA
Orbit
LEO
Country
Flag of USUS
Related business
Manufacturer
SpaceX/Seattle
Mission
Operational Commercial Communications
Bus & Motor
STARLINK, Unknown motor
Mass
297 kg wet, ~275 kg dry
Launch date (UTC)
2022-01-06 (4 years ago)
Launch vehicle
FALCON 9
Launch site
Air Force Eastern Test Range (AFETR)
Object type
Payload
Rocket body
Debris
Shape & HBR
Box + 1 Pan, 10.1 m
Radar Cross Section
13.562 m², Large (>1 m²)

Expand to show TLE details & history
Last TLE update: 2 days ago

TLE from 2 days ago
0 STARLINK-3329
1 50827U 22001AA  26171.43003954  .00001116  00000-0  88217-4 0  9991
2 50827  53.1610  67.7878 0001412  92.5451 267.5702 15.08831034245910
Epoch: 2026-06-20T10:19Z
TLE epoch observation values (Epoch: 2026-06-20T10:19:15.416Z)
Latitude
-0.00002°
Longitude
4.32878°
Altitude
540.704 km
Speed
7.593 km/s
True Right ascension
04h 31m 09s
True Declination
0° 00' 00"
Sunlit
Object was in daylight at epoch
Visualization orbit readout
Latitude
Unknown
Longitude
Unknown
Altitude
Unknown
Speed
Unknown
Apparent Right ascension
Unknown
Apparent Declination
Unknown
Sunlit
N/A
Visualization observer readout
Local Sidereal Time
21:25:05
Azimuth
Unknown
Elevation
Unknown
Doppler factor
Unknown
Orbital elements
Apogee altitude
541.002 km
Perigee altitude
539.048 km
Semi-major axis
6,918.162 km
Eccentricity
0.00014
Inclination
53.161°
RAAN
67.7878°
Arg. of periapsis
92.5451°
True anomaly
267.55403°
Mean anomaly
267.5702°
Eccentric anomaly
267.56212°
Mean motion
3.77187 °/min
Orbital period
95.44 mins
BSTAR
0.000088217
Loading maneuver chart data...
Computing Atmospheric mass density...
Loading historical data...
Loading historical data...
Loading historical data...
Loading historical data...
Loading historical data...
Loading historical data...
Loading historical data...

Documentation

Showing up to 5 results
|